Regional Weather Roundup
Issued by NWS

Home | Current Version | Previous Version | Graphics & Text | Print | Product List | Glossary On
Versions: 1 2 3 4 5 6 7 8 9 10 11 12 13 14 15 16 17 18 19 20 21 22 23 24 25 26 27 28 29 30 31 32 33 34 35 36 37 38 39 40 41 42 43 44 45 46 47 48 49 50
000
ASUS43 KDMX 292103
RWRIA

WEATHER ROUNDUP FOR IOWA
NATIONAL WEATHER SERVICE DES MOINES IA
400 PM CDT FRI JUL 29 2016

NOTE: "FAIR" INDICATES FEW OR NO CLOUDS BELOW 12,000 FEET WITH NO
SIGNIFICANT WEATHER AND/OR OBSTRUCTIONS TO VISIBILITY.

* - THESE STATIONS ARE NOT NWS STATIONS...THUS NOT UNDER NWS
QUALITY CONTROL.  THEY ALSO DO NOT REPORT WEATHER SUCH
AS PRECIPITATION OR FOG.

IAZ001>003-012>014-020>022-031>034-043>046-292200-
   NORTHWEST IOWA

CITY           SKY/WX    TMP DP  RH WIND       PRES   REMARKS
CARROLL *      CLOUDY    70  63  78 NE5       30.03F
CHEROKEE *     CLOUDY    75  63  66 E8        30.04F
DENISON *      CLOUDY    73  63  68 NE9G15    30.02F
LE MARS *      CLOUDY    77  61  57 NE6G13    30.04F
SHELDON *      PTSUNNY   77  64  65 NE8       30.04F
SIOUX CITY     PTSUNNY   81  59  47 NE9       30.03F HX  81
SPENCER        CLOUDY    76  59  55 NE6       30.05F
STORM LAKE *   SUNNY     72  63  73 NE7       30.05F
$$

IAZ055>058-069>071-079>083-090>094-292200-
   SOUTHWEST IOWA

CITY           SKY/WX    TMP DP  RH WIND       PRES   REMARKS
ATLANTIC *     MOSUNNY   73  64  73 N10G16    30.02S
CLARINDA *       N/A     81  61  50 MISG      30.02F HX  81
COUNCIL BLFS * MOSUNNY   77  63  61 N9        30.02F
CRESTON *      PTSUNNY   75  64  69 N15       30.01F
HARLAN  *      PTSUNNY   75  64  69 NE13      30.06S
LAMONI         MOSUNNY   78  65  63 NW10      29.98F HX  80
RED OAK *      MOSUNNY   79  63  57 N10       30.01S HX  80
SHENANDOAH *   PTSUNNY   81  63  54 NW8       30.01F HX  82
$$

IAZ047>049-059>061-072>074-084-292200-
   CENTRAL IOWA

CITY           SKY/WX    TMP DP  RH WIND       PRES   REMARKS
AMES           CLOUDY    70  66  87 N12       30.00F
ANKENY *         N/A    N/A N/A N/A MISG        N/A
BOONE *        CLOUDY    68  63  83 MISG      30.01S
CHARITON *       N/A    N/A N/A N/A MISG        N/A
DES MOINES     CLOUDY    72  64  76 N13       29.99F
GRINNELL*      CLOUDY    68  66  93 NW9       29.99S FOG
KNOXVILLE *    CLOUDY    70  63  78 NW12      29.97F
MARSHALLTOWN   CLOUDY    71  66  84 N9        29.98F
NEWTON *       CLOUDY    68  66  94 NW6       29.98F
PELLA *        PTSUNNY   73  65  75 NW10      29.99S
PERRY *        CLOUDY    70  66  86 NW6       30.02S
$$

IAZ004>006-015-016-023>025-035-036-292200-
   NORTH CENTRAL IOWA

CITY           SKY/WX    TMP DP  RH WIND       PRES   REMARKS
ALGONA *       CLOUDY    72  63  73 N6        30.04S
ESTHERVILLE    CLOUDY    73  62  68 N8        30.04F
FORT DODGE *   CLOUDY    70  61  73 N6        30.03F
MASON CITY     CLOUDY    72  60  66 NE9       30.03S
FOREST CITY *  CLOUDY    72  61  68 N8        30.03S
IOWA FALLS *   PTSUNNY   72  65  77 NE6       30.02S
$$

IAZ007>011-017>019-026>030-037>042-050>054-066-292200-
   NORTHEAST IOWA

CITY           SKY/WX    TMP DP  RH WIND       PRES   REMARKS
CEDAR RAPIDS   LGT RAIN  71  69  93 N9        29.94F
CHARLES CITY * CLOUDY    70  64  83 NE7G14    30.01S
CLINTON *      CLOUDY    77  70  79 N10       29.92S
DECORAH *      CLOUDY    70  66  88 CALM      30.00S
DUBUQUE        CLOUDY    69  66  90 NE9       29.97F
MONTICELLO *   CLOUDY    70  66  88 VRB7      29.96S
OELWEIN *      CLOUDY    70  64  83 N10       29.99F
WATERLOO       CLOUDY    71  64  78 N9        29.98S
$$

IAZ064-065-067-068-078-292200-
   EAST CENTRAL IOWA

CITY           SKY/WX    TMP DP  RH WIND       PRES   REMARKS
DAVENPORT      MOSUNNY   77  68  73 N8        29.92S
IOWA CITY      MOSUNNY   79  67  66 N9        29.94F HX  81
MT. PLEASANT * PTSUNNY   80  68  68 W6        29.94F HX  82
MUSCATINE *    PTSUNNY   81  66  61 W10       29.92S HX  83
QUAD CITIES    PTSUNNY   83  67  58 NW7       29.90F HX  85
$$

IAZ062-063-075>077-085>089-095>099-292200-
   SOUTHEAST IOWA

CITY           SKY/WX    TMP DP  RH WIND       PRES   REMARKS
BURLINGTON     PTSUNNY   76  67  73 W7        29.93F
FAIRFIELD *    MOSUNNY   75  66  73 NW9       29.95S
KEOKUK *       PTSUNNY   77  66  69 NW7       29.94S
CENTERVILLE *    N/A     75  64  69 NW7       29.99F
OTTUMWA        CLOUDY    74  64  71 NW12      29.96F
WASHINGTON *   PTSUNNY   75  68  78 VRB6G13   29.95S
$$

ABBREVIATIONS USED IN REMARKS
   TC - TEMPERATURES IN CELSIUS
  WCI - WIND CHILL INDEX
   HX - HEAT INDEX
  VSB - VISIBILITY
$$




USA.gov is the U.S. government's official web portal to all federal, state and local government web resources and services.